This is the latest recevied weather packets stored in our database for station/object 4S6DRJ-13. If no packets are shown the sender has not sent any weather packets the latest 10 day(s).
| Time | Temp. | Humidity | Pressure | Rain* | Wind** | Luminosity | Snow |
|---|---|---|---|---|---|---|---|
| 1788425345 | 31.67° C | 67% | 1007.5 hPa | 0 mm | 1.79 m/s, 125° | 397 W/m² | - |
| 1788425284 | 31.11° C | 69% | 1007.4 hPa | 0 mm | 0.89 m/s, 287° | 545 W/m² | - |
| 1788425223 | 31.11° C | 70% | 1007.6 hPa | 0 mm | 0.89 m/s, 151° | 1107 W/m² | - |
| 1788425162 | 31.11° C | 70% | 1007.6 hPa | 0 mm | 1.34 m/s, 326° | 1111 W/m² | - |
| 1788425101 | 31.11° C | 69% | 1007.6 hPa | 0 mm | 2.24 m/s, 11° | 1113 W/m² | - |
| 1788425040 | 31.11° C | 68% | 1007.8 hPa | 0 mm | 3.13 m/s, 232° | 583 W/m² | - |
| 1788424979 | 31.11° C | 67% | 1007.8 hPa | 0 mm | 3.13 m/s, 208° | 1120 W/m² | - |
| 1788424918 | 31.11° C | 70% | 1007.8 hPa | 0 mm | 1.34 m/s, 242° | 523 W/m² | - |
| 1788424857 | 31.11° C | 70% | 1007.9 hPa | 0 mm | 1.79 m/s, 208° | 374 W/m² | - |
| 1788424796 | 31.11° C | 70% | 1007.8 hPa | 0 mm | 1.79 m/s, 215° | 371 W/m² | - |
| 1788424735 | 31.11° C | 70% | 1007.7 hPa | 0 mm | 1.79 m/s, 282° | 358 W/m² | - |
| 1788424674 | 31.11° C | 69% | 1007.9 hPa | 0 mm | 2.68 m/s, 260° | 1111 W/m² | - |
| 1788424613 | 31.11° C | 69% | 1007.7 hPa | 0 mm | 2.24 m/s, 168° | 432 W/m² | - |
| 1788424553 | 31.11° C | 69% | 1007.9 hPa | 0 mm | 1.79 m/s, 20° | 415 W/m² | - |
| 1788424491 | 31.67° C | 68% | 1007.7 hPa | 0 mm | 3.13 m/s, 264° | 620 W/m² | - |
| 1788424430 | 31.67° C | 69% | 1007.7 hPa | 0 mm | 2.24 m/s, 198° | 1120 W/m² | - |
| 1788424368 | 31.67° C | 69% | 1007.7 hPa | 0 mm | 2.68 m/s, 191° | 531 W/m² | - |
| 1788424307 | 31.67° C | 70% | 1007.8 hPa | 0 mm | 2.24 m/s, 256° | 1120 W/m² | - |
| 1788424246 | 31.67° C | 69% | 1007.8 hPa | 0 mm | 1.34 m/s, 190° | 408 W/m² | - |
| 1788424185 | 31.67° C | 69% | 1007.7 hPa | 0 mm | 1.79 m/s, 297° | 1126 W/m² | - |
| 1788424124 | 31.67° C | 70% | 1007.8 hPa | 0 mm | 1.34 m/s, 250° | 1129 W/m² | - |
| 1788424063 | 31.67° C | 70% | 1007.6 hPa | 0 mm | 0.89 m/s, 314° | 438 W/m² | - |
| 1788424002 | 31.67° C | 69% | 1007.9 hPa | 0 mm | 3.13 m/s, 178° | 356 W/m² | - |
| 1788423942 | 31.67° C | 69% | 1007.9 hPa | 0 mm | 2.68 m/s, 258° | 1113 W/m² | - |
| 1788423880 | 31.67° C | 70% | 1007.7 hPa | 0 mm | 1.79 m/s, 302° | 1121 W/m² | - |
* Rain latest hour (hover to see other rain measurements)
** Current wind speed in m/s (hover to see current wind gust speed)